This demonstration page uses our WeatherBlox Daily Observations layout. Learn more.

39.29038, -76.61219

Hourly Observations for December 28, 2017

Temp ( °F °C ) Dew Point ( °F °C ) Humidity (%) Winds ( mph kmh ) Pressure ( in mb ) Visibility ( mi km ) Precip ( " mm )
12:54 am 00:54 undefined 19 -7.2 -1 -18.3 41 41 undefined N/A 30.59 1036 N/A 0 0
1:54 am 01:54 undefined 19 -7.2 -1 -18.3 41 41 undefined N/A 30.59 1036 N/A 0 0
2:54 am 02:54 undefined 18 -7.8 -1 -18.3 43 43 undefined N/A 30.59 1036 N/A 0 0
3:54 am 03:54 undefined 17 -8.3 0 -17.8 47 47 undefined N/A 30.59 1036 N/A 0 0
4:54 am 04:54 undefined 17 -8.3 0 -17.8 47 47 undefined N/A 30.59 1036 N/A 0 0
5:54 am 05:54 undefined 17 -8.3 0 -17.8 47 47 undefined N/A 30.62 1037 N/A 0 0
6:54 am 06:54 undefined 17 -8.3 0 -17.8 47 47 undefined N/A 30.62 1037 N/A 0 0
7:54 am 07:54 undefined 17 -8.3 1 -17.2 49 49 undefined N/A 30.65 1038 N/A 0 0
8:54 am 08:54 undefined 18 -7.8 0 -17.8 45 45 undefined N/A 30.65 1038 N/A 0 0
9:54 am 09:54 undefined 19 -7.2 -2 -18.9 39 39 undefined N/A 30.65 1038 N/A 0 0
10:54 am 10:54 undefined 20 -6.7 -3 -19.4 36 36 undefined N/A 30.65 1038 N/A 0 0
11:54 am 11:54 undefined 22 -5.6 -3 -19.4 33 33 undefined N/A 30.62 1037 N/A 0 0
12:54 pm 12:54 undefined 23 -5 -3 -19.4 32 32 undefined N/A 30.59 1036 N/A 0 0
1:54 pm 13:54 undefined 23 -5 -4 -20 30 30 undefined N/A 30.56 1035 N/A 0 0
2:54 pm 14:54 undefined 23 -5 -4 -20 30 30 undefined N/A 30.56 1035 N/A 0 0
3:54 pm 15:54 undefined 24 -4.4 -5 -20.6 27 27 undefined N/A 30.53 1034 N/A 0 0
4:54 pm 16:54 undefined 24 -4.4 -5 -20.6 27 27 undefined N/A 30.56 1035 N/A 0 0
5:54 pm 17:54 undefined 23 -5 -4 -20 30 30 undefined N/A 30.56 1035 N/A 0 0
6:54 pm 18:54 undefined 23 -5 -5 -20.6 29 29 undefined N/A 30.53 1034 N/A 0 0
7:54 pm 19:54 undefined 22 -5.6 -1 -18.3 36 36 undefined N/A 30.53 1034 N/A 0 0
8:54 pm 20:54 undefined 21 -6.1 -1 -18.3 38 38 undefined N/A 30.5 1033 N/A 0 0
9:54 pm 21:54 undefined 21 -6.1 -2 -18.9 36 36 undefined N/A 30.5 1033 N/A 0 0
10:54 pm 22:54 undefined 21 -6.1 -1 -18.3 38 38 undefined N/A 30.48 1032 N/A 0 0
11:54 pm 23:54 undefined 20 -6.7 0 -17.8 41 41 undefined N/A 30.48 1032 N/A 0 0

Powered by AerisWeather